Tracking 29892 objects as of 21-Nov-2024
HD Live streaming from Space Station
objects crossing your sky now

THOR AGENA B DEB

Track THOR AGENA B DEB now!
10-day predictions


NORAD ID: 2092
Int'l Code: 1965-098H
Perigee: 509.3 km
Apogee: 2,577.4 km
Inclination: 79.9 °
Period: 116.8 minutes
Semi major axis: 7914 km
RCS: 0.1037 m2 (medium)
Launch date: November 29, 1965
Source: United States (US)
Launch site: AIR FORCE WESTERN TEST RANGE (AFWTR)

Note: This is SATELLITE DEBRIS
Your satellite tracking list
Your tracking list is empty




NASA's NSSDC Master Catalog

Two Line Element Set (TLE):
1 02092U 65098H   24325.41866081  .00003912  00000-0  12821-2 0  9992
2 02092  79.8588 130.7114 1306555 203.9184 149.5522 12.33044610609635
Source of the keplerian elements: AFSPC